CAPE
0 0 0 0 0 0 0 0 0 0 0 0 0 0 0 0 0 0 0 0 0 0
0 0 0 0 0 0 0 0 0 0 0 0 0 0 0 0 0 0 0 0 0 0
0 0 0 0 0 0 0 0 0 0 0 0 0 0 0 0 0 0 0 0 0 0
0 0 0 0 0 0 0 0 0 0 0 0 0 0 0 0 0 0 0 0 0 0
0 0 0 0 0 0 0 0 0 0 0 0 0 0 0 0 0 0 0 0 0 0
0 0 0 0 0 0 0 0 0 0 0 0 0 0 0 0 0 0 0 0 0 0
0 0 0 0 0 0 0 0 0 0 0 0 0 0 0 0 0 0 0 0 0 0
0 0 0 0 0 0 0 0 0 0 0 0 0 0 0 0 0 0 0 0 0 0
0 0 0 0 0 0 0 0 0 0 0 0 0 0 0 0 0 0 0 0 0 0
0 0 0 0 0 0 0 0 0 0 0 0 0 0 0 0 0 0 0 0 0 0
0 0 0 0 0 0 0 0 0 0 0 0 0 0 0 0 0 0 0 0 0 0
0 0 0 0 0 0 0 0 0 0 0 0 0 0 0 0 0 0 0 0 0 0
0 0 0 0 0 0 0 0 0 0 0 0 0 0 0 0 0 0 0 0 0 0
0 0 0 0 0 0 0 0 0 0 0 0 0 0 0 0 0 0 0 0 0 0
CIN
-0 -0 -0 -0 -0 -0 -0 -0 -0 -0 -0 -0 -0 -0 -0 -0 -0 -0 -0 -0 -0 -0
-0 -0 -0 -0 -0 -0 -0 -0 -0 -0 -0 -0 -0 -0 -0 -0 -0 -0 -0 -0 -0 -0
-0 -0 -0 -0 -0 -0 -0 -0 -0 -0 -0 -0 -0 -0 -0 -0 -0 -0 -0 -0 -0 -0
-0 -0 -0 -0 -0 -0 -0 -0 -0 -0 -0 -0 -0 -0 -0 -0 -0 -0 -0 -0 -0 -0
-0 -0 -0 -0 -0 -0 -0 -0 -0 -0 -0 -0 -0 -0 -0 -0 -0 -0 -0 -0 -0 -0
-0 -0 -0 -0 -0 -0 -0 -0 -0 -0 -0 -0 -0 -0 -0 -0 -0 -0 -0 -0 -0 -0
-0 -0 -0 -0 -0 -0 -0 -0 -0 -0 -0 -0 -0 -0 -0 -0 -0 -0 -0 -0 -0 -0
-0 -0 -0 -0 -0 -0 -0 -0 -0 -0 -0 -0 -0 -0 -0 -0 -0 -0 -0 -0 -0 -0
-0 -0 -0 -0 -0 -0 -0 -0 -0 -0 -0 -0 -0 -0 -0 -0 -0 -0 -0 -0 -0 -0
-0 -0 -0 -0 -0 -0 -0 -0 -0 -0 -0 -0 -0 -0 -0 -0 -0 -0 -0 -0 -0 -0
-0 -0 -0 -0 -0 -0 -0 -0 -0 -0 -0 -0 -0 -0 -0 -0 -0 -3 -0 -0 -0 -0
-0 -0 -0 -0 -0 -0 -0 -0 -0 -0 -0 -0 -0 -0 -0 -0 -0 -0 -0 -0 -0 -0
-0 -0 -0 -0 -0 -0 -0 -0 -0 -0 -0 -0 -0 -0 -0 -0 -0 -0 -0 -0 -0 -0
-0 -0 -0 -0 -0 -0 -0 -0 -0 -0 -0 -0 -0 -0 -0 -0 -0 -0 -0 -0 -0 -0
Wind_Speed
15 13 10 8 6 4 2 2 4 5 7 9 10 11 12 14 15 15 15 17 17 18
16 14 12 9 6 5 3 1 3 4 6 8 9 10 11 12 13 14 14 15 16 17
17 15 13 10 8 6 4 3 3 3 5 6 8 9 9 11 11 13 13 15 15 16
17 16 14 12 9 7 5 4 3 2 3 5 6 7 8 9 10 11 13 14 15 17
18 17 15 13 10 8 7 5 4 2 2 4 5 6 6 8 9 10 11 14 15 16
19 18 17 15 12 10 8 7 5 4 3 3 4 5 5 6 7 8 10 13 14 14
20 19 18 15 13 11 10 8 7 5 3 2 2 2 3 5 6 7 8 10 11 12
20 19 18 16 15 13 11 9 7 6 5 3 2 1 3 4 5 6 6 7 8 9
21 20 19 17 15 13 11 10 9 8 6 5 3 2 2 2 3 3 4 6 6 7
19 19 18 17 16 15 13 12 11 10 8 6 5 3 2 1 1 2 4 5 6 7
19 19 18 17 16 16 15 14 14 12 10 8 8 5 2 2 0 1 3 5 6 6
19 19 18 17 17 17 16 16 15 13 12 11 9 6 4 2 1 1 1 2 4 4
18 18 18 18 18 19 19 18 17 16 14 13 10 8 6 4 2 2 0 1 1 2
17 18 19 19 19 19 20 19 18 16 15 13 12 10 8 6 4 3 2 1 1 0
Wind_Direction
217 218 221 210 205 192 176 129 95 73 65 63 61 57 51 49 52 51 51 52 71 87
216 215 219 218 217 218 226 158 114 82 75 67 59 55 52 51 53 49 47 58 74 87
216 217 218 217 216 219 217 193 143 102 84 72 62 55 52 51 51 52 48 66 77 92
213 215 217 219 223 221 213 198 181 135 97 81 70 58 53 49 55 61 62 73 85 98
217 218 219 221 221 221 214 210 192 172 124 94 70 59 59 57 62 70 76 84 94 102
220 219 220 222 223 220 219 217 210 194 154 120 88 74 57 61 66 73 84 93 100 104
219 220 222 223 223 221 219 214 208 192 184 155 110 71 54 67 73 76 87 95 96 107
223 223 224 224 226 226 223 216 204 204 203 194 169 105 87 81 84 87 94 95 98 101
225 224 224 224 224 223 220 218 218 216 213 194 239 165 99 67 78 84 98 109 103 101
225 224 223 222 222 221 221 221 220 222 220 218 239 183 138 35 44 90 109 110 113 109
226 225 225 223 222 222 223 221 222 223 221 230 240 199 199 140 39 82 101 119 120 120
229 227 224 223 222 225 222 223 226 224 227 230 232 204 200 207 243 125 112 102 117 126
231 227 225 224 226 228 227 228 229 229 231 232 227 213 203 222 230 173 177 52 83 122
236 233 231 230 229 225 227 227 228 226 232 231 232 217 204 204 218 208 183 148 86 19